• In Uzbekistan
  • List of Countries
  • For 7 days
  • Water Temperature
  • Satellite Maps
  • Weather Map
  • Weather Widgets
  • user-avatar
    Login

    Hourly Weather Barh

    Today, 20 January, Saturday

    Time Temperature Precipitation Wind Pressure Humidity
    00:00 +15°C° 0 mm 1 mps 757 mmHg 68%
    01:00 +14°C° 0 mm 1 mps 756 mmHg 69%
    02:00 +14°C° 0 mm 1 mps 756 mmHg 71%
    03:00 +14°C° 0 mm 1 mps 756 mmHg 72%
    04:00 +13°C° 0 mm 1 mps 756 mmHg 74%
    05:00 +13°C° 0 mm 2 mps 756 mmHg 75%
    06:00 +13°C° 0 mm 2 mps 756 mmHg 77%
    07:00 +14°C° 0 mm 2 mps 756 mmHg 72%
    08:00 +15°C° 0 mm 2 mps 757 mmHg 68%
    09:00 +17°C° 0 mm 2 mps 757 mmHg 64%
    10:00 +19°C° 0 mm 2 mps 757 mmHg 58%
    11:00 +21°C° 0 mm 2 mps 757 mmHg 52%
    12:00 +24°C° 0 mm 3 mps 757 mmHg 46%
    13:00 +25°C° 0 mm 3 mps 756 mmHg 43%
    14:00 +25°C° 0 mm 3 mps 756 mmHg 39%
    15:00 +26°C° 0 mm 4 mps 755 mmHg 36%
    16:00 +24°C° 0 mm 3 mps 755 mmHg 40%
    17:00 +22°C° 0 mm 3 mps 755 mmHg 45%
    18:00 +20°C° 0 mm 2 mps 755 mmHg 49%
    19:00 +19°C° 0 mm 2 mps 755 mmHg 52%
    20:00 +18°C° 0 mm 2 mps 756 mmHg 54%
    21:00 +17°C° 0 mm 2 mps 756 mmHg 56%
    22:00 +18°C° 0 mm 1 mps 756 mmHg 58%
    23:00 +16°C° 0 mm 1 mps 756 mmHg 60%

    Tomorrow, 21 January, Sunday

    Time Temperature Precipitation Wind Pressure Humidity
    00:00 +15°C° 0 mm 1 mps 756 mmHg 62%
    01:00 +15°C° 0 mm 1 mps 756 mmHg 63%
    02:00 +15°C° 0 mm 1 mps 756 mmHg 65%
    03:00 +13°C° 0 mm 0 mps 755 mmHg 67%
    04:00 +13°C° 0 mm 0 mps 756 mmHg 68%
    05:00 +13°C° 0 mm 1 mps 756 mmHg 70%
    06:00 +13°C° 0 mm 1 mps 756 mmHg 71%
    07:00 +14°C° 0 mm 1 mps 756 mmHg 68%
    08:00 +16°C° 0 mm 1 mps 757 mmHg 64%
    09:00 +18°C° 0 mm 1 mps 758 mmHg 60%
    10:00 +20°C° 0 mm 1 mps 758 mmHg 54%
    11:00 +22°C° 0 mm 1 mps 758 mmHg 47%
    12:00 +24°C° 0 mm 2 mps 758 mmHg 41%
    13:00 +25°C° 0 mm 2 mps 757 mmHg 38%
    14:00 +25°C° 0 mm 2 mps 756 mmHg 35%
    15:00 +26°C° 0 mm 3 mps 755 mmHg 32%
    16:00 +24°C° 0 mm 2 mps 755 mmHg 36%
    17:00 +21°C° 0 mm 2 mps 755 mmHg 40%
    18:00 +20°C° 0 mm 2 mps 755 mmHg 44%
    19:00 +19°C° 0 mm 2 mps 755 mmHg 45%
    20:00 +18°C° 0 mm 2 mps 756 mmHg 47%
    21:00 +17°C° 0 mm 2 mps 756 mmHg 48%
    22:00 +16°C° 0 mm 2 mps 756 mmHg 50%
    23:00 +16°C° 0 mm 1 mps 756 mmHg 51%

    Day after tomorrow, 22 January, Monday

    Time Temperature Precipitation Wind Pressure Humidity
    00:00 +15°C° 0 mm 1 mps 756 mmHg 52%
    01:00 +14°C° 0 mm 1 mps 755 mmHg 54%
    02:00 +14°C° 0 mm 1 mps 755 mmHg 56%
    03:00 +13°C° 0 mm 1 mps 755 mmHg 57%
    04:00 +13°C° 0 mm 2 mps 755 mmHg 59%
    05:00 +13°C° 0 mm 2 mps 755 mmHg 61%
    06:00 +12°C° 0 mm 2 mps 755 mmHg 63%
    07:00 +14°C° 0 mm 2 mps 756 mmHg 60%
    08:00 +15°C° 0 mm 2 mps 756 mmHg 57%
    09:00 +16°C° 0 mm 2 mps 757 mmHg 55%
    10:00 +18°C° 0 mm 2 mps 757 mmHg 49%
    11:00 +20°C° 0 mm 2 mps 757 mmHg 43%
    12:00 +23°C° 0 mm 2 mps 757 mmHg 37%
    13:00 +24°C° 0 mm 2 mps 756 mmHg 35%
    14:00 +25°C° 0 mm 3 mps 755 mmHg 33%
    15:00 +26°C° 0 mm 3 mps 754 mmHg 31%
    16:00 +24°C° 0 mm 2 mps 754 mmHg 35%
    17:00 +21°C° 0 mm 2 mps 754 mmHg 39%
    18:00 +19°C° 0 mm 2 mps 753 mmHg 43%
    19:00 +19°C° 0 mm 1 mps 754 mmHg 45%
    20:00 +18°C° 0 mm 1 mps 755 mmHg 47%
    21:00 +16°C° 0 mm 1 mps 755 mmHg 49%
    22:00 +16°C° 0 mm 1 mps 755 mmHg 50%
    23:00 +15°C° 0 mm 1 mps 755 mmHg 52%

    23 January, Tuesday

    Time Temperature Precipitation Wind Pressure Humidity
    00:00 +15°C° 0 mm 1 mps 755 mmHg 53%
    01:00 +14°C° 0 mm 1 mps 755 mmHg 55%
    02:00 +14°C° 0 mm 1 mps 754 mmHg 56%
    03:00 +13°C° 0 mm 1 mps 754 mmHg 58%
    04:00 +13°C° 0 mm 1 mps 754 mmHg 60%
    05:00 +13°C° 0 mm 1 mps 754 mmHg 61%
    06:00 +12°C° 0 mm 1 mps 754 mmHg 63%
    07:00 +14°C° 0 mm 1 mps 755 mmHg 60%
    08:00 +15°C° 0 mm 1 mps 755 mmHg 57%
    09:00 +18°C° 0 mm 1 mps 756 mmHg 54%
    10:00 +20°C° 0 mm 1 mps 756 mmHg 48%
    11:00 +22°C° 0 mm 1 mps 755 mmHg 42%
    12:00 +24°C° 0 mm 1 mps 755 mmHg 36%
    13:00 +25°C° 0 mm 1 mps 754 mmHg 34%
    14:00 +25°C° 0 mm 1 mps 753 mmHg 31%
    15:00 +26°C° 0 mm 1 mps 752 mmHg 28%
    16:00 +24°C° 0 mm 1 mps 752 mmHg 32%
    17:00 +22°C° 0 mm 1 mps 751 mmHg 36%
    18:00 +20°C° 0 mm 1 mps 751 mmHg 39%
    19:00 +20°C° 0 mm 1 mps 752 mmHg 41%
    20:00 +19°C° 0 mm 1 mps 752 mmHg 42%
    21:00 +18°C° 0 mm 1 mps 753 mmHg 43%
    22:00 +18°C° 0 mm 1 mps 753 mmHg 44%
    23:00 +16°C° 0 mm 1 mps 753 mmHg 45%

    24 January, Wednesday

    Time Temperature Precipitation Wind Pressure Humidity
    00:00 +16°C° 0 mm 1 mps 753 mmHg 47%
    01:00 +16°C° 0 mm 2 mps 752 mmHg 48%
    02:00 +15°C° 0 mm 2 mps 752 mmHg 49%
    03:00 +15°C° 0 mm 2 mps 751 mmHg 50%
    04:00 +15°C° 0 mm 2 mps 751 mmHg 50%
    05:00 +15°C° 0 mm 2 mps 751 mmHg 51%
    06:00 +15°C° 0 mm 2 mps 752 mmHg 51%
    07:00 +16°C° 0 mm 2 mps 752 mmHg 52%
    08:00 +16°C° 0 mm 3 mps 753 mmHg 52%
    09:00 +17°C° 0 mm 3 mps 753 mmHg 53%
    10:00 +19°C° 0 mm 3 mps 753 mmHg 50%
    11:00 +20°C° 0 mm 2 mps 753 mmHg 47%
    12:00 +23°C° 0 mm 2 mps 753 mmHg 44%
    13:00 +23°C° 0 mm 2 mps 753 mmHg 44%
    14:00 +24°C° 0 mm 2 mps 752 mmHg 43%
    15:00 +24°C° 0 mm 2 mps 751 mmHg 43%
    16:00 +23°C° 0 mm 2 mps 751 mmHg 47%
    17:00 +20°C° 0 mm 2 mps 751 mmHg 51%
    18:00 +19°C° 0 mm 2 mps 751 mmHg 55%
    19:00 +18°C° 0 mm 2 mps 752 mmHg 57%
    20:00 +17°C° 0 mm 2 mps 752 mmHg 58%
    21:00 +17°C° 0 mm 2 mps 753 mmHg 59%
    22:00 +16°C° 0 mm 3 mps 753 mmHg 60%
    23:00 +16°C° 0 mm 3 mps 753 mmHg 60%

    25 January, Thursday

    Time Temperature Precipitation Wind Pressure Humidity
    00:00 +16°C° 0 mm 3 mps 753 mmHg 61%
    01:00 +14°C° 0 mm 3 mps 753 mmHg 61%
    02:00 +14°C° 0 mm 3 mps 752 mmHg 62%
    03:00 +14°C° 0 mm 2 mps 752 mmHg 62%
    04:00 +14°C° 0 mm 2 mps 752 mmHg 65%
    05:00 +14°C° 0 mm 2 mps 752 mmHg 68%
    06:00 +13°C° 0 mm 2 mps 752 mmHg 72%
    07:00 +14°C° 0 mm 3 mps 753 mmHg 70%
    08:00 +16°C° 0 mm 3 mps 754 mmHg 69%
    09:00 +17°C° 0 mm 3 mps 754 mmHg 68%
    10:00 +19°C° 0 mm 3 mps 754 mmHg 61%
    11:00 +21°C° 0 mm 3 mps 754 mmHg 55%
    12:00 +24°C° 0 mm 3 mps 754 mmHg 48%
    13:00 +25°C° 0 mm 3 mps 754 mmHg 45%
    14:00 +26°C° 0 mm 4 mps 753 mmHg 42%
    15:00 +26°C° 0 mm 4 mps 753 mmHg 39%
    16:00 +24°C° 0 mm 3 mps 753 mmHg 44%
    17:00 +22°C° 0 mm 3 mps 752 mmHg 50%
    18:00 +20°C° 0 mm 2 mps 752 mmHg 55%
    19:00 +19°C° 0 mm 2 mps 753 mmHg 58%
    20:00 +18°C° 0 mm 2 mps 753 mmHg 60%
    21:00 +17°C° 0 mm 2 mps 754 mmHg 63%
    22:00 +17°C° 0 mm 2 mps 754 mmHg 65%
    23:00 +16°C° 0 mm 2 mps 754 mmHg 67%
    Show more